Location: Zagreb
(45.8000°N, 16.0000°E)
Time: 10:08:54
(UTC+01:00)

Courier 1B Rocket - All Passes

Search period start: 28 January 2022 00:00
Search period end: 07 February 2022 00:00
Orbit: 920 x 1202 km, 28.2° (Epoch: 27 January)

Date Brightness Start Highest point End Pass type
(mag) Time Alt. Az. Time Alt. Az. Time Alt. Az.
28 Jan - 01:20:29 10° SW 01:25:17 18° S 01:29:54 10° SE night (unlit)
28 Jan - 03:13:29 10° SW 03:17:38 16° SSW 03:21:37 10° SSE visible
29 Jan - 00:19:46 10° SSW 00:24:27 17° S 00:28:59 10° SE night (unlit)
29 Jan - 02:12:07 10° SW 02:16:51 18° S 02:21:25 10° SE night (unlit)
29 Jan - 04:07:19 10° SW 04:09:04 11° SSW 04:10:48 10° S visible
29 Jan - 23:19:22 10° SSW 23:23:37 16° SSE 23:27:46 10° SE night (unlit)
30 Jan - 01:10:59 10° SW 01:16:02 19° S 01:20:56 10° SE night (unlit)
30 Jan - 03:04:45 10° SW 03:08:22 14° SSW 03:11:53 10° SSE visible
30 Jan - 22:19:28 10° S 22:22:47 13° SSE 22:26:03 10° SE night (unlit)
31 Jan - 00:10:03 10° SW 00:15:11 19° S 00:20:11 10° SE night (unlit)
31 Jan - 02:03:04 10° SW 02:07:36 17° SSW 02:12:01 10° SSE night (unlit)
31 Jan - 21:21:39 10° SSE 21:21:58 10° SSE 21:22:18 10° SSE night (unlit)
31 Jan - 23:09:21 10° SSW 23:14:19 18° S 23:19:12 10° SE night (unlit)
01 Feb - 01:01:43 10° SW 01:06:47 19° S 01:11:43 10° SE night (unlit)
01 Feb - 02:56:37 10° SW 02:59:04 12° SSW 03:01:29 10° S night (unlit)
01 Feb - 22:08:59 10° SSW 22:13:27 16° SSE 22:17:53 10° SE night (unlit)
02 Feb - 00:00:36 10° SW 00:05:55 20° S 00:11:08 10° SE night (unlit)
02 Feb - 01:54:18 10° SW 01:58:19 15° SSW 02:02:14 10° SSE night (unlit)
02 Feb - 21:09:08 10° S 21:12:36 13° SSE 21:16:06 10° SE visible
02 Feb - 22:59:42 10° SW 23:05:02 20° S 23:10:17 10° SE night (unlit)
03 Feb - 00:52:40 10° SW 00:57:31 18° S 01:02:14 10° SSE night (unlit)
03 Feb - 20:11:01 10° SSE 20:11:49 10° SSE 20:12:37 10° SSE visible
03 Feb - 21:59:04 10° SSW 22:04:09 19° S 22:09:11 10° SE night (unlit)
03 Feb - 23:51:22 10° SW 23:56:39 20° S 00:01:50 10° SE night (unlit)
04 Feb - 01:46:04 10° SW 01:48:59 12° SSW 01:51:51 10° S night (unlit)
04 Feb - 20:58:47 10° SSW 21:03:16 16° SSE 21:07:47 10° SE visible
04 Feb - 22:50:19 10° SW 22:55:45 21° S 23:01:08 10° SE night (unlit)
05 Feb - 00:43:54 10° SW 00:48:11 16° SSW 00:52:24 10° SSE night (unlit)
05 Feb - 19:59:02 10° S 20:02:27 13° SSE 20:05:53 10° SE visible
05 Feb - 21:49:30 10° SW 21:54:51 20° S 22:00:12 10° SE visible
05 Feb - 23:42:22 10° SW 23:47:21 18° S 23:52:17 10° SSE night (unlit)
06 Feb - 20:48:58 10° SSW 20:53:57 19° S 20:59:00 10° SE visible
06 Feb - 22:41:09 10° SW 22:46:27 20° S 22:51:46 10° SE night (unlit)
